Location: Casilda
(33.0440°S, 61.1680°W)
Time: 15:59:41
(UTC-03:00)

ISS - Pass Details

Date: 23 May 2022
Orbit: 414 x 421 km, 51.6° (Epoch: 25 May)

Event Time Altitude Azimuth Distance (km) Brightness Sun altitude
Exits shadow 06:36:39 23° 202° (SSW) 951 -2.3 -16.1°
Drops below altitude 10° 06:39:01 10° 159° (SSE) 1,522 -0.9 -15.6°
Sets 06:41:25 0° 145° (SE) 2,395 0.4 -15.1°
